Location: Kawakawa
(35.3830°S, 174.0670°E)
Time: 11:30:08
(UTC+13:00)

Explorer 7 - Pass Details

Date: 17 December 2019
Orbit: 485 x 679 km, 50.3° (Epoch: 19 January)

Event Time Altitude Azimuth Distance (km) Brightness Sun altitude
Rises 01:44:38 0° 328° (NNW) 2,733 - -31.0°
Reaches altitude 10° 01:47:00 10° 335° (NNW) 1,811 - -30.9°
Maximum altitude 01:50:51 40° 45° (NE) 784 - -30.8°
Exits shadow 01:54:30 10° 115° (ESE) 1,717 9.7 -30.7°
Drops below altitude 10° 01:54:34 10° 116° (ESE) 1,739 9.7 -30.7°
Sets 01:56:48 0° 123° (ESE) 2,610 10.8 -30.6°
